www.pogodaiklimat.ru
Время
(UTC), дата
12 17.02
15 17.02
18 17.02
21 17.02
00 18.02
03 18.02
06 18.02
09 18.02
12 18.02
15 18.02
18 18.02
21 18.02
00 19.02
03 19.02
06 19.02
09 19.02
12 19.02
15 19.02
18 19.02
21 19.02
00 20.02
03 20.02
06 20.02
09 20.02
12 20.02
15 20.02
18 20.02
21 20.02
00 21.02
03 21.02
06 21.02
09 21.02
12 21.02
15 21.02
18 21.02
21 21.02
00 22.02
03 22.02
06 22.02
09 22.02
12 22.02
15 22.02
18 22.02
21 22.02
00 23.02
03 23.02
06 23.02
09 23.02
12 23.02
15 23.02
18 23.02
21 23.02
00 24.02
03 24.02
06 24.02
09 24.02
Ветер
(напр.,м/с)
Видим. Явления Облачность Т
(С)
Тd
(С)
f
(%)
Тe
(С)
Тes
(С)
Комфортность P
(гПа)
Po
(гПа)
Тmin
(С)
Tmax
(С)
R
(мм)
R24
(мм)
S
(см)
С 3-6
{9}
4000 м слаб. ливневой снег {метель} 10/10 600 м
[Cb cap]
-8.8 -11.9 78 -15 -15 по сезону 1011.5 1008.6
С 5-9
{9}
4000 м слаб. ливневой снег {метель} 10/10 600 м
[Cb cap]
-8.8 -12.2 76 -16 -16 по сезону 1010.2 1007.3
С 4-7
{9}
4000 м слаб. ливневой снег {метель} 10/10 600 м
[Cb cap]
-8.6 -11.4 80 -15 -15 по сезону 1009.5 1006.6
С 6-10
{11}
4000 м слаб. ливневой снег {метель} 9/6 600 м
[Cb cap Ac trans]
-8.7 -11.2 82 -17 -17 по сезону 1009.5 1006.7 -9.2 0.4 49
С 5-9
{11}
4000 м слаб. ливневой снег {метель} 10/8 600 м
[Cb cap As trans]
-8.0 -11.2 78 -16 -15 по сезону 1010.8 1008.0
С 7-13
{14}
10 км слаб. ливневой снег {метель} 10/6 600 м
[Cb cap Cs]
-6.9 -10.7 74 -15 -15 прохладно 1009.6 1006.8
С 7-11
{14}
10 км слаб. ливневой снег {метель} 10/6 600 м
[Cb cap Cs]
-7.4 -11.1 75 -16 -16 холодно 1010.0 1007.1
С 3-6
{12}
4000 м слаб. ливневой снег {метель} 8/4 600 м
[Cb cap Ci fib]
-9.0 -11.7 81 -15 -15 прохладно 1012.2 1009.3 -6.5 0.2
С 3-6
{7}
4000 м слаб. ливневой снег {метель} 10/6 600 м
[Cb cap Ci fib]
-9.2 -11.4 84 -15 -15 по сезону 1013.7 1010.8
С 2-3
{6}
4000 м слаб. ливневой снег 10/4 600 м
[Cb cap Ac lent Ci fib]
-9.6 -11.6 85 -14 -14 по сезону 1015.0 1012.2
С 2-2
{3}
4000 м {ливн. осадки} 9/0
[Ac trans]
-9.8 -11.6 87 -14 -14 по сезону 1015.8 1012.9
штиль 0
{3}
4000 м слаб. ливневой снег 9/9 600 м
[Cb cap]
-11.7 -13.6 86 -12 -12 по сезону 1017.7 1014.7 -11.7 0.0 47
ЮЗ 1-1
{2}
20 км {ливн. осадки} 9/4 600 м
[Cb cap Ac trans]
-7.5 -11.4 74 -10 -9 по сезону 1018.9 1016.0 -11.8
ЮЗ 2-4
{4}
20 км 9/9 600 м
[Cb cap]
-4.0 -12.5 52 -8 -7 по сезону 1018.7 1015.8
Ю 2-4
{4}
20 км 10/0
[As trans]
-3.3 -11.5 53 -7 -6 по сезону 1018.6 1015.7
Ю 1-1
{6}
4000 м слаб. снег 10/0
[As op]
-5.9 -9.2 77 -8 -8 по сезону 1019.9 1017.0 -2.0 0.0
З 1-2
{2}
4000 м {снег} 9/3 600 м
[Cb cap Cc]
-8.6 -10.2 88 -11 -11 по сезону 1020.6 1017.7
С 1-2
{3}
1000 м дымка 10/10 200 м
[St]
-8.8 -10.3 89 -11 -11 по сезону 1021.5 1018.6
С 1-2
{3}
4000 м 9/9 1000 м
[Sc]
-11.6 -13.6 85 -14 -14 по сезону 1022.0 1019.1
С 1-2
{2}
4000 м 3/0
[Cc]
-15.7 -17.9 83 -18 -18 прохладно 1022.9 1019.9 -16.5 0.4 47
штиль 0
{2}
10 км 10/3 600 м
[Cb calv Ac trans Cc]
-9.7 -13.4 74 -10 -8 по сезону 1023.5 1020.6
Ю 3-5
{5}
20 км слаб. ливневой снег 4/4 600 м
[Cb cap]
-4.9 -9.1 72 -10 -7 по сезону 1022.5 1019.6
З 2-4
{8}
10 км слаб. ливневой снег 9/9 600 м
[Cb cap]
-3.2 -9.6 61 -7 -7 по сезону 1022.7 1019.9
ЮЗ 1-1
{5}
4000 м {ливн. осадки} 3/3 600 м
[Cb calv]
-7.6 -12.9 66 -10 -10 по сезону 1024.0 1021.1 -2.6 0.2
штиль 0
{2}
4000 м в посл. час ливневой снег 10/8 600 м
[Cb cap Ci fib]
-10.9 -13.4 82 -11 -11 по сезону 1024.8 1021.9
С 1-2
{3}
4000 м 10/3 600 м
[Cb calv Ci sp]
-13.4 -15.4 85 -16 -16 по сезону 1025.6 1022.6
С 1-2
{2}
4000 м 10/6 600 м
[Cb calv Ac trans Ci sp]
-14.2 -16.4 83 -17 -17 по сезону 1026.2 1023.3
С 2-3
{3}
4000 м 8/1 600 м
[Sc Ac trans Ci fib]
-15.2 -17.6 82 -20 -20 по сезону 1027.3 1024.3 -15.5 0.0 47
С 3-4
{5}
20 км 3/0
[Ac trans]
-12.3 -16.0 74 -18 -16 по сезону 1029.0 1026.0 -15.6
С 2-3
{5}
20 км 8/3 600 м
[Sc Ac trans]
-4.8 -16.2 40 -8 -6 по сезону 1028.7 1025.8
СЗ 1-2
{5}
20 км слаб. ливневой снег 8/8 600 м
[Cb cap]
-4.4 -11.6 57 -6 -6 по сезону 1029.0 1026.1
З 2-2
{5}
4000 м {ливн. осадки} 3/1 1000 м
[Sc Ac trans]
-9.0 -15.1 61 -13 -13 по сезону 1030.6 1027.7 -3.1 0.0
С 1-2
{2}
4000 м мгла ясно -15.0 -17.5 81 -18 -18 по сезону 1031.0 1028.0
С 1
{2}
4000 м мгла ясно -19.0 -21.6 80 -22 -22 прохладно 1030.2 1027.2
С 1-2
{2}
4000 м ясно -20.0 -22.7 79 -23 -23 прохладно 1029.1 1026.0
штиль 0
{2}
4000 м 8/0
[Ac trans Ci fib]
-20.0 -22.8 78 -20 -20 по сезону 1027.2 1024.2 -20.4 46
СЗ 1-1
{2}
4000 м мгла 10/0
[As trans]
-11.4 -13.5 84 -14 -12 по сезону 1024.9 1022.0 -20.5
Ю 1-3
{5}
4000 м снег 10/0
[As op]
-3.9 -7.4 77 -6 -4 тепло 1021.3 1018.5
Ю 3-5
{7}
500 м сильн. снег 10/0
[As op]
-2.8 -4.5 88 -8 -8 по сезону 1016.9 1014.1
ЮЗ 2-4
{5}
4000 м слаб. снег 10/0
[As op]
-3.1 -4.6 89 -7 -7 по сезону 1013.4 1010.6 -2.5 2
СЗ 1-2
{4}
4000 м слаб. ливневой снег 10/10 600 м
[Cb cap]
-3.4 -4.7 91 -6 -6 тепло 1008.5 1005.7
С 3-5
{8}
4000 м слаб. ливневой снег 10/10 600 м
[Cb cap]
-4.1 -5.8 88 -10 -10 тепло 1002.3 999.5
С 5-9
{9}
4000 м слаб. ливневой снег 10/10 600 м
[Cb cap]
-3.1 -4.4 91 -10 -10 тепло 996.8 994.0
С 5-10
{10}
1000 м ливневой снег {метель} 10/10 600 м
[Cb cap]
-2.9 -4.9 86 -10 -10 тепло 992.8 990.0 -4.5 3 54
С 7-13
{14}
200 м ливневой снег {метель} 10/10 600 м
[Cb cap]
-2.8 -4.1 91 -11 -11 по сезону 992.3 989.5
С 10-17
{17}
200 м ливневой снег {метель} 10/10 600 м
[Cb cap]
-3.8 -5.3 89 -13 -13 по сезону 994.1 991.3
С 9-17
{18}
50 м ливневой снег {метель} 10/10 600 м
[Cb cap]
-3.6 -5.0 90 -13 -13 прохладно 997.6 994.8
С 5-10
{17}
500 м ливневой снег {метель} 10/10 600 м
[Cb cap]
-4.1 -5.7 89 -11 -11 по сезону 1002.8 1000.0 -2.8 8
С 3-6
{10}
4000 м слаб. ливневой снег {метель} 10/10 600 м
[Cb cap]
-3.7 -5.5 87 -9 -9 по сезону 1006.2 1003.4
СЗ 1-3
{8}
4000 м слаб. ливневой снег 10/10 600 м
[Cb cap]
-4.0 -5.9 87 -6 -6 тепло 1008.5 1005.7
С 2-4
{4}
4000 м {ливн. осадки} 10/6 600 м
[Cb calv Ci fib]
-6.4 -9.4 79 -11 -11 тепло 1009.9 1007.0
С 1-1
{4}
4000 м 6/0
[Ci fib]
-12.8 -15.7 79 -15 -15 по сезону 1012.2 1009.3 -12.8 1 59
С 2-3
{3}
20 км 1/0
[Ci fib]
-5.4 -12.9 56 -9 -5 по сезону 1013.6 1010.8 -14.8
СЗ 3-6
{8}
20 км 3/3 1000 м
[Cu med, cong]
-1.8 -15.0 36 -6 -2 по сезону 1013.1 1010.3
СЗ 4-6
{7}
20 км 4/4 600 м
[Sc]
-2.2 -16.0 34 -7 -6 по сезону 1013.3 1010.5
СЗ 2-3
{6}
4000 м 1/0
[Ci fib]
-6.5 -16.2 46 -10 -10 по сезону 1015.3 1012.5 -0.9
Местоположение метеостанции Южно-Сахалинск (Сахалинская область, Россия): широта 46.95 долгота 142.70 высота над уровнем моря 24 м.
В архиве по умолчанию представлена погода в Южно-Сахалинске за последнюю неделю. Архивные данные за месяц целиком и за предыдущие месяцы, начиная с января 2011 года, Вы можете получить, выбрав интересующий диапазон дат из раскрывающегося списка и нажав кнопку "Найти!".
*Определитесь, кто Вы:
Внимание! Время в таблицах - всемирное. Для получения местного времени необходимо прибавить поправку, которая равна 11 ч.
Смотрите также архив погоды в соседних городах и на ближайших метеорологических станциях:
Партнеры нашего сайта:      
Пояснения к столбцам:
  • Ветер - указаны скорость ветра в м/с - средняя за 10 мин, порывы в срок и между сроками (в фигурных скобках) и направление, откуда дует ветер: С - северный,
  • СВ - северо-восточный, В - восточный, ЮВ - юго-восточный, Ю - южный, ЮЗ - юго-западный, З - западный, СЗ - северо-западный.
  • Видимость - горизонтальная дальность видимости в метрах или километрах. При видимости от 1 до 10 км при отсутствии осадков обычно наблюдается дымка, при ухудшении видимости до 1 км и менее - туман. В сухую погоду видимость может ухудшаться дымом, пылью или мглою.
  • Явления - указаны атмосферные явления, наблюдавшиеся в срок или в последний час перед сроком; фигурными скобками обозначены явления, наблюдавшиеся между сроками (за 1-3 часа до срока); квадратными скобками обозначены град или гололедные отложения с указанием их диаметра в мм.
  • Облачность - указаны через наклонную черту общая и нижняя облачность в баллах и высота нижней границы облаков в метрах; квадратными скобками обозначены формы облаков: Ci - перистые, Cs - перисто-слоистые, Cc - перисто-кучевые, Ac - высококучевые, As - высокослоистые, Sc - слоисто-кучевые, Ns - слоисто-дождевые, Cu - кучевые, Cb - кучево-дождевые. Подробнее классификацию облаков см. в Атласе облаков (PDF).
  • T - Температура воздуха - температура, измеренная на высоте 2 м над землей.
  • Td - Температура точки росы - температура, при понижении до которой содержащийся в воздухе водяной пар достигнет насыщения.
  • f - Относительная влажность воздуха - влажноcть воздуха, измеренная на высоте 2 м над землей.
  • Te - Эффективная температура - температура, которую ощущает одетый по сезону человек в тени. Характеристика душности погоды. При расчете учитывается влияние влажности воздуха и скорости ветра на теплоощущения человека.
  • Tes - Эффективная температура на солнце - температура, которую ощущает человек, с поправкой на солнечный нагрев. Характеристика знойности погоды. Зависит от высоты солнца над горизонтом, облачности и скорости ветра. Ночью, в пасмурную погоду, а также при ветре 12 м/с и более поправка равна нулю.
  • P - Атмосферное давление - приведенное к уровню моря атмосферное давление.
  • Po - Атмосферное давление - измеренное на уровне метеостанции атмосферное давление.
  • Tmin - Минимальная температура - минимум температуры воздуха на высоте 2 м над землей.
  • Tmax - Максимальная температура - максимум температуры воздуха на высоте 2 м над землей.
  • R - Количество осадков - Количество выпавших осадков за период времени, мм. При наведении курсора мыши на число - период времени, за который выпало указанное количество осадков.
  • R24 - Количество осадков - Количество выпавших осадков за 24 часа, мм.
  • S - Снежный покров - Высота снежного покрова, см. При наведении курсора мыши на число - состояние снежного покрова и степень покрытия местности в баллах.